Location: Ailly
(50.0793°N, 1.9944°E)
Time: 17:57:12
(UTC+00:00)

ARIANE 6 FM1 Upper Stage - Pass Details

Date: 15 January 2026
Orbit: 522 x 608 km, 62.0° (Epoch: 18 February)

Event Time Altitude Azimuth Distance (km) Brightness Sun altitude
Exits shadow 05:15:05 24° 182° (S) 1,128 4.2 -23.4°
Drops below altitude 10° 05:16:59 10° 165° (SSE) 1,782 5.4 -23.0°
Sets 05:19:17 0° 157° (SSE) 2,680 6.5 -22.7°
